Location: Mattawa
(46.3175°N, 78.7022°W)
Time: 13:24:19
(UTC-04:00)

ISS - Visible Passes

Search period start: 13 May 2025 00:00
Search period end: 23 May 2025 00:00
Orbit: 416 x 420 km, 51.6° (Epoch: 13 May)

Date Brightness Start Highest point End Pass type
(mag) Time Alt. Az. Time Alt. Az. Time Alt. Az.
13 May -1.9 00:51:36 10° WNW 00:53:43 29° NNW 00:53:43 29° NNW visible
13 May -2.3 22:26:17 10° W 22:29:27 38° NNW 22:32:37 10° ENE visible
14 May -2.1 00:03:38 10° WNW 00:06:44 34° N 00:07:26 30° NE visible
14 May -2.6 21:38:09 10° W 21:41:24 46° NNW 21:44:41 10° ENE visible
14 May -2.0 23:15:36 10° WNW 23:18:39 31° N 23:21:05 14° ENE visible
15 May -1.7 00:52:30 10° WNW 00:54:00 24° NW 00:54:00 24° NW visible
15 May -1.9 22:27:30 10° WNW 22:30:34 31° N 22:33:38 10° ENE visible
16 May -2.8 00:04:33 10° WNW 00:07:37 46° N 00:07:37 46° N visible
16 May -2.0 21:39:22 10° WNW 21:42:28 33° N 21:45:34 10° ENE visible
16 May -2.4 23:16:35 10° WNW 23:19:45 38° NNE 23:21:14 24° ENE visible
17 May -1.2 00:53:21 10° WNW 00:54:08 16° WNW 00:54:08 16° WNW visible
17 May -2.2 22:28:32 10° WNW 22:31:39 33° N 22:34:45 10° ENE visible
18 May -2.8 00:05:21 10° WNW 00:07:44 43° WNW 00:07:44 43° WNW visible
18 May -2.0 21:40:27 10° WNW 21:43:30 31° N 21:46:34 10° ENE visible
18 May -3.4 23:17:21 10° WNW 23:20:41 61° NNE 23:21:19 49° ENE visible
19 May -2.9 22:29:20 10° WNW 22:32:36 46° NNE 22:34:55 17° E visible
20 May -1.9 00:06:11 10° WNW 00:07:49 24° W 00:07:49 24° W visible
20 May -2.5 21:41:18 10° WNW 21:44:28 38° NNE 21:47:38 10° E visible
20 May -3.8 23:18:03 10° WNW 23:21:24 65° SSW 23:21:25 65° SSW visible
21 May -3.8 22:29:59 10° WNW 22:33:21 84° NNE 22:35:02 27° ESE visible
22 May -1.1 00:07:28 10° W 00:07:56 12° W 00:07:56 12° W visible
22 May -3.3 21:41:55 10° WNW 21:45:16 60° NNE 21:48:36 10° ESE visible
22 May -2.4 23:18:58 10° W 23:21:33 26° SW 23:21:33 26° SW visible
